Regional Weather Roundup
Issued by NWS

Home | Current Version | Previous Version | Graphics & Text | Print | Product List | Glossary On
Versions: 1 2 3 4 5 6 7 8 9 10 11 12 13 14 15 16 17 18 19 20 21 22 23 24 25 26 27
000
ASUS45 KSLC 240410
RWRUT

UTAH REGIONAL WEATHER ROUNDUP
NATIONAL WEATHER SERVICE SALT LAKE CITY UT
1000 PM MDT THU MAR 23 2017

UTZ001>011-023>025-240500-

NORTHERN UTAH

CITY           SKY/WX    TMP DP  RH WIND       PRES   REMARKS
BRIGHAM CITY     N/A     40  36  88 CALM      30.05R
HILL AFB       CLEAR     36  34  92 E6        30.04R WCI  31
LOGAN          CLOUDY    43  38  82 S6        30.02R
OGDEN          CLEAR     35  34  96 SE5       30.04R WCI  31
SALT LAKE CITY PTCLDY    39  35  86 CALM      30.03R
WENDOVER       CLEAR     49  22  34 NW17G24   30.07R
HEBER CITY     MOCLDY    37  30  75 SE5       29.99R WCI  34

$$

UTZ011>015-024>027-240500-

CENTRAL/NORTHEAST UTAH

CITY           SKY/WX    TMP DP  RH WIND       PRES   REMARKS
PROVO AIRPORT  MOCLDY    38  34  85 S7        30.04R WCI  33
MOAB/CANYONLAN CLOUDY    46  35  65 W10       29.83R
DELTA          CLEAR     32  32 100 S8        30.08R WCI  25
PRICE          PTCLDY    40  29  64 NW22G30   29.89R WCI  30
RICHFIELD      CLOUDY    41  34  75 S1        30.09R
ROOSEVELT      CLOUDY    43  34  70 SW6       29.89R
VERNAL         CLOUDY    46  30  53 NE8G20    29.86R

$$

UTZ013>016-019>022-027-240500-

SOUTHERN UTAH

CITY           SKY/WX    TMP DP  RH WIND       PRES   REMARKS
BRYCE CANYON   CLOUDY    31  25  78 NW18G28   30.04R WCI  19
CEDAR CITY     CLEAR     32  27  81 VRB3      30.08R
MILFORD        CLEAR    N/A N/A N/A SW5       30.09R
ST GEORGE      MOCLDY    50  41  71 S6        30.06R
HANKSVILLE     PTCLDY    45  30  57 W12       29.91R
KANAB          CLEAR     41  30  65 S7        30.09R
BLANDING       MOCLDY    42  32  68 NW14G21   29.91R

$$

REGIONAL REPORTS     COLORADO/ARIZONA

CITY           SKY/WX    TMP DP  RH WIND       PRES   REMARKS
CRAIG, CO      CLOUDY    42  37  82 SW3       29.83R
GRAND JUNCTION LGT RAIN  45  39  79 NW6       29.82R
RIFLE, CO      LGT RAIN  44  37  76 NW17G23   29.81R
MONTROSE, CO   RAIN      40  38  93 W6        29.82R FOG
CORTEZ, CO     LGT RAIN  38  36  92 E3        29.85S
COLORADO CITY    N/A     41  36  81 W6        30.10R
PAGE, AZ       MOCLDY    51  32  48 NW14G28   29.93R
GRAND CANYON   PTCLDY    35  33  92 VRB3      30.08R
KINGMAN, AZ    CLEAR     47  31  53 S8        30.07R
FLAGSTAFF, AZ  MOCLDY    33  30  88 W9        30.06R WCI  25

$$

REGIONAL REPORTS    NEVADA/IDAHO/WYOMING

CITY           SKY/WX    TMP DP  RH WIND       PRES   REMARKS
LAS VEGAS, NV  PTCLDY    64  30  27 E7        30.01R
ELY, NY        CLEAR     36  22  56 W13       30.13R WCI  27
ELKO, NV       CLEAR     41  27  57 CALM      30.11R
POCATELLO, ID  CLEAR     42  23  46 SW16      30.06R
BURLEY, ID     CLEAR     39  26  59 S9        30.06R WCI  33
FORT BRIDGER,  CLOUDY    36  36 100 W8        30.01R WCI  29
EVANSTON, WY   CLOUDY    32  28  85 W3        30.00R
ROCK SPRINGS,  FLURRIES  38  30  73 NE12      29.96R WCI  30
KEMMERER, WY     N/A     34  30  86 NW6       29.98R WCI  29

$$




USA.gov is the U.S. government's official web portal to all federal, state and local government web resources and services.